This demonstration page uses our WeatherBlox Daily Observations layout. Learn more.

Left ArrowRight Arrow

44.89941, -97.11507

Hourly Observations for July 24, 2020

Temp ( °F °C ) Dew Point ( °F °C ) Humidity (%) Winds ( mph kmh ) Pressure ( in mb ) Visibility ( mi km ) Precip ( " mm )
12:53 am 00:53 Clear 75 23.9 73 22.8 94 94 SSE 15 24 29.88 1012 10 16 0.00 0.00
1:53 am 01:53 Mostly Clear 75 23.9 73 22.8 94 94 SSE 17 28 29.88 1012 10 16 0.00 0.00
2:53 am 02:53 Clear 75 23.9 73 22.8 94 94 SSE 14 22 29.87 1012 10 16 0.00 0.00
3:53 am 03:53 Clear 76 24.4 73 22.8 91 91 S 18 30 29.86 1011 10 16 0.00 0.00
4:53 am 04:53 Clear 76 24.4 72 22.2 88 88 S 18 30 29.86 1011 10 16 0.00 0.00
5:53 am 05:53 Clear 76 24.4 72 22.2 88 88 S 13 20 29.89 1012 10 16 0.00 0.00
6:53 am 06:53 Sunny 76 24.4 71 21.7 85 85 S 14 22 29.88 1012 10 16 0.00 0.00
7:53 am 07:53 Sunny 76 24.4 71 21.7 85 85 S 13 20 29.90 1013 10 16 0.00 0.00
8:53 am 08:53 Sunny 79 26.1 72 22.2 79 79 S 16 26 29.89 1012 10 16 0.00 0.00
9:53 am 09:53 Sunny 82 27.8 72 22.2 72 72 S 18 30 29.88 1012 10 16 0.00 0.00
10:53 am 10:53 Sunny 84 28.9 73 22.8 70 70 S 18 30 29.88 1012 10 16 0.00 0.00
11:53 am 11:53 Sunny 86 30 75 23.9 70 70 S 17 28 29.88 1012 10 16 0.00 0.00
12:53 pm 12:53 Mostly Sunny 87 30.6 74 23.3 65 65 S 20 31 29.88 1012 10 16 0.00 0.00
1:53 pm 13:53 Sunny 89 31.7 75 23.9 63 63 S 20 31 29.86 1011 10 16 0.00 0.00
2:53 pm 14:53 Mostly Sunny 90 32.2 75 23.9 62 62 S 21 33 29.86 1011 10 16 0.00 0.00
3:53 pm 15:53 Mostly Sunny 90 32.2 75 23.9 62 62 S 18 30 29.85 1011 10 16 0.00 0.00
4:53 pm 16:53 Mostly Sunny 90 32.2 75 23.9 62 62 S 17 28 29.85 1011 10 16 0.00 0.00
5:53 pm 17:53 Mostly Sunny 89 31.7 75 23.9 63 63 S 18 30 29.83 1010 10 16 0.00 0.00
6:53 pm 18:53 Sunny 86 30 75 23.9 70 70 S 17 28 29.83 1010 10 16 0.00 0.00
7:53 pm 19:53 Partly Cloudy 83 28.3 74 23.3 74 74 SSE 20 31 29.80 1009 10 16 0.00 0.00
8:53 pm 20:53 Cloudy 81 27.2 74 23.3 79 79 S 13 20 29.83 1010 10 16 0.00 0.00
9:53 pm 21:53 Clear 80 26.7 74 23.3 82 82 SSE 15 24 29.80 1009 10 16 0.00 0.00
10:53 pm 22:53 Clear 80 26.7 74 23.3 82 82 SSE 24 39 29.75 1007 10 16 0.00 0.00
11:53 pm 23:53 Mostly Cloudy with Light Rain 79 26.1 74 23.3 85 85 SSE 8 13 29.79 1009 10 16 0.00 0.00

Powered by AerisWeather